DW7412 Weather Reports


time (UTC)temp
C
wind
direction
speed
KPH
gust
KPH
rain 1hr
cm
rain 24hr
cm
rain mn
cm
humidity
%
barometer
mb
20260507050926 13 324 1.6 4.8 0.00 0.00 0.00 80 1016.7
20260507050426 13 330 1.6 4.8 0.00 0.00 0.00 79 1016.7
20260507045923 13 336 0.0 0.0 0.00 0.00 0.00 79 1016.7
20260507045424 13 336 0.0 0.0 0.00 0.00 0.00 79 1016.7
20260507044923 14 336 0.0 0.0 0.00 0.00 0.00 78 1016.7
20260507044423 14 336 0.0 0.0 0.00 0.00 0.00 78 1016.7
20260507043925 14 336 0.0 0.0 0.00 0.00 0.00 78 1016.6
20260507043424 -17 336 0.0 0.0 0.00 0.00 0.00 1016.6
20260507042923 -17 336 0.0 0.0 0.00 0.00 0.00 1016.6
20260507042423 15 336 0.0 1.6 0.00 0.00 0.00 77 1016.5
20260507041924 15 336 0.0 1.6 0.00 0.00 0.00 77 1016.5
20260507041423 15 336 0.0 0.0 0.00 0.00 0.00 77 1016.5
20260507040926 15 336 0.0 0.0 0.00 0.00 0.00 77 1016.5
20260507040425 15 336 0.0 0.0 0.00 0.00 0.00 77 1016.5
20260507035923 15 336 0.0 1.6 0.00 0.00 0.00 77 1016.4
20260507035423 15 336 0.0 1.6 0.00 0.00 0.00 77 1016.4
20260507034924 15 336 0.0 1.6 0.00 0.00 0.00 77 1016.3
20260507033923 15 336 1.6 8.0 0.00 0.00 0.00 77 1016.1
20260507032926 15 251 3.2 3.2 0.00 0.00 0.00 77 1016.0
20260507032424 15 219 1.6 3.2 0.00 0.00 0.00 77 1016.0
20260507031426 15 221 3.2 6.4 0.00 0.00 0.00 76 1015.9
20260507030923 16 279 1.6 6.4 0.00 0.00 0.00 76 1015.9
20260507030424 16 275 1.6 6.4 0.00 0.00 0.00 76 1015.7
20260507025924 16 283 1.6 4.8 0.00 0.00 0.00 75 1015.8
20260507024923 16 234 1.6 6.4 0.00 0.00 0.00 75 1015.6
20260507024424 16 272 3.2 6.4 0.00 0.00 0.00 74 1015.6
20260507023924 16 281 3.2 8.0 0.00 0.00 0.00 73 1015.6
20260507023425 16 240 3.2 8.0 0.00 0.00 0.00 73 1015.5
20260507022923 16 231 3.2 8.0 0.00 0.00 0.00 72 1015.5
20260507022422 17 188 3.2 8.0 0.00 0.00 0.00 71 1015.4
20260507021924 17 212 3.2 8.0 0.00 0.00 0.00 70 1015.4
20260507021422 17 203 3.2 8.0 0.00 0.00 0.00 70 1015.3
20260507020924 17 204 1.6 8.0 0.00 0.00 0.00 69 1015.3
20260507020423 17 169 1.6 4.8 0.00 0.00 0.00 69 1015.3
20260507015924 17 179 1.6 6.4 0.00 0.00 0.00 69 1015.3
20260507015423 17 220 3.2 6.4 0.00 0.00 0.00 68 1015.3
20260507014923 17 223 3.2 6.4 0.00 0.00 0.00 68 1015.3
20260507014424 18 248 3.2 6.4 0.00 0.00 0.00 67 1015.3
20260507013923 18 281 1.6 6.4 0.00 0.00 0.00 66 1015.4
20260507013423 18 235 3.2 6.4 0.00 0.00 0.00 65 1015.3
20260507012924 18 209 1.6 8.0 0.00 0.00 0.00 65 1015.3
20260507012423 18 213 3.2 8.0 0.00 0.00 0.00 64 1015.3
20260507011923 19 186 4.8 6.4 0.00 0.00 0.00 62 1015.2
20260507010925 19 240 3.2 8.0 0.00 0.00 0.00 61 1015.2
20260507010423 19 193 4.8 8.0 0.00 0.00 0.00 61 1015.3
20260507005423 20 203 6.4 9.7 0.00 0.00 0.00 59 1015.5
20260507004923 20 171 4.8 14.5 0.00 0.00 0.00 59 1015.5
20260507004424 20 183 3.2 16.1 0.00 0.00 0.00 60 1015.4
20260507003922 20 169 6.4 16.1 0.00 0.00 0.00 59 1015.4
20260507003422 20 190 8.0 16.1 0.00 0.00 0.00 58 1015.4
20260507002923 20 182 3.2 14.5 0.00 0.00 0.00 58 1015.5
20260507001924 20 175 4.8 9.7 0.00 0.00 0.00 56 1015.4
20260507000925 21 234 6.4 14.5 0.00 0.00 0.00 56 1015.4
20260507000424 21 179 4.8 11.3 0.00 0.00 0.00 56 1015.4
20260506235926 21 203 4.8 14.5 0.00 0.00 0.00 55 1015.3
20260506235424 21 196 3.2 14.5 0.00 0.00 0.00 55 1015.3
20260506234926 21 176 4.8 11.3 0.00 0.00 0.00 56 1015.3
20260506233922 21 195 6.4 11.3 0.00 0.00 0.00 55 1015.3
20260506232924 21 175 4.8 19.3 0.00 0.00 0.00 56 1015.4
20260506231923 21 216 3.2 17.7 0.00 0.00 0.00 56 1015.4
20260506231422 21 72 3.2 17.7 0.00 0.00 0.00 54 1015.3
20260506230922 21 210 8.0 17.7 0.00 0.00 0.00 54 1015.4
20260506230424 21 188 3.2 17.7 0.00 0.00 0.00 55 1015.4
20260506225924 21 185 8.0 16.1 0.00 0.00 0.00 53 1015.4
20260506225422 22 234 6.4 16.1 0.00 0.00 0.00 53 1015.4
20260506224925 22 190 4.8 14.5 0.00 0.00 0.00 53 1015.5
20260506224423 22 212 6.4 14.5 0.00 0.00 0.00 53 1015.6
20260506223423 22 135 3.2 11.3 0.00 0.00 0.00 53 1015.6
20260506222922 22 190 4.8 20.9 0.00 0.00 0.00 53 1015.8
20260506221922 22 243 8.0 17.7 0.00 0.00 0.00 52 1016.0
20260506220924 22 176 6.4 17.7 0.00 0.00 0.00 53 1016.0
20260506220423 22 169 3.2 17.7 0.00 0.00 0.00 52 1016.2
20260506215423 23 168 4.8 11.3 0.00 0.00 0.00 51 1016.3
20260506214924 23 83 1.6 14.5 0.00 0.00 0.00 51 1016.3
20260506214424 23 186 4.8 16.1 0.00 0.00 0.00 51 1016.3
20260506213925 22 121 4.8 16.1 0.00 0.00 0.00 51 1016.4
20260506213423 23 168 3.2 17.7 0.00 0.00 0.00 53 1016.4
20260506212923 23 185 6.4 19.3 0.00 0.00 0.00 53 1016.4
20260506212423 23 202 4.8 20.9 0.00 0.00 0.00 54 1016.4
20260506211924 22 180 3.2 20.9 0.00 0.00 0.00 54 1016.5
20260506211424 23 133 3.2 9.7 0.00 0.00 0.00 54 1016.6
20260506210923 23 121 3.2 9.7 0.00 0.00 0.00 53 1016.8
20260506210423 22 173 3.2 11.3 0.00 0.00 0.00 55 1016.7
20260506205922 22 138 4.8 14.5 0.00 0.00 0.00 53 1016.6
20260506205424 22 145 6.4 14.5 0.00 0.00 0.00 55 1016.7
20260506204923 22 133 4.8 16.1 0.00 0.00 0.00 55 1016.7
20260506204422 22 204 4.8 16.1 0.00 0.00 0.00 56 1016.7
20260506203922 22 168 4.8 11.3 0.00 0.00 0.00 55 1016.8
20260506202922 22 171 4.8 17.7 0.00 0.00 0.00 55 1016.8
20260506202423 23 269 4.8 16.1 0.00 0.00 0.00 56 1017.0
20260506201922 22 234 3.2 16.1 0.00 0.00 0.00 56 1017.0
20260506201422 22 204 3.2 17.7 0.00 0.00 0.00 56 1017.0
20260506200923 22 161 1.6 17.7 0.00 0.00 0.00 56 1017.0
20260506200423 22 116 8.0 17.7 0.00 0.00 0.00 57 1017.0
20260506195922 22 195 6.4 20.9 0.00 0.00 0.00 57 1017.1
20260506195423 22 203 8.0 20.9 0.00 0.00 0.00 57 1017.1
20260506194923 22 117 4.8 20.9 0.00 0.00 0.00 57 1017.1
20260506193923 22 193 6.4 16.1 0.00 0.00 0.00 57 1017.2
20260506193422 22 133 4.8 19.3 0.00 0.00 0.00 58 1017.1
20260506192922 22 180 6.4 19.3 0.00 0.00 0.00 56 1017.3
20260506192423 22 162 4.8 14.5 0.00 0.00 0.00 57 1017.3
20260506191923 22 169 3.2 16.1 0.00 0.00 0.00 58 1017.3
20260506191423 21 106 3.2 16.1 0.00 0.00 0.00 58 1017.2
20260506190924 22 206 6.4 16.1 0.00 0.00 0.00 58 1017.2
20260506190422 22 124 3.2 14.5 0.00 0.00 0.00 58 1017.3
20260506185922 22 244 6.4 14.5 0.00 0.00 0.00 57 1017.3
20260506185423 22 148 3.2 14.5 0.00 0.00 0.00 57 1017.3
20260506184923 22 154 6.4 16.1 0.00 0.00 0.00 55 1017.4
20260506184422 22 200 6.4 16.1 0.00 0.00 0.00 56 1017.3
20260506183923 21 118 3.2 14.5 0.00 0.00 0.00 54 1017.4
20260506182923 22 206 3.2 8.0 0.00 0.00 0.00 52 1017.5
20260506182422 22 130 4.8 11.3 0.00 0.00 0.00 52 1017.5
20260506181923 22 193 3.2 11.3 0.00 0.00 0.00 54 1017.5
20260506181422 21 142 3.2 8.0 0.00 0.00 0.00 54 1017.7
20260506180923 21 27 3.2 8.0 0.00 0.00 0.00 53 1017.6
20260506180423 21 138 3.2 9.7 0.00 0.00 0.00 52 1017.6
20260506175922 22 138 3.2 9.7 0.00 0.00 0.00 51 1017.7
20260506175422 22 180 1.6 8.0 0.00 0.00 0.00 53 1017.6
20260506174922 22 120 1.6 8.0 0.00 0.00 0.00 53 1017.7
20260506174423 21 148 3.2 8.0 0.00 0.00 0.00 53 1017.7
20260506173922 21 109 3.2 9.7 0.00 0.00 0.00 52 1017.6
20260506173422 21 137 3.2 9.7 0.00 0.00 0.00 53 1017.7
20260506172923 21 99 3.2 8.0 0.00 0.00 0.00 54 1017.7
20260506172423 21 140 3.2 8.0 0.00 0.00 0.00 52 1017.7
20260506171923 21 123 1.6 8.0 0.00 0.00 0.00 53 1017.8
20260506171422 20 94 3.2 8.0 0.00 0.00 0.00 57 1017.8
20260506170922 21 85 3.2 6.4 0.00 0.00 0.00 54 1017.7
20260506170422 21 125 3.2 4.8 0.00 0.00 0.00 52 1017.7
20260506165923 21 104 1.6 4.8 0.00 0.00 0.00 54 1017.7
20260506165422 20 111 1.6 4.8 0.00 0.00 0.00 54 1017.8
20260506164424 20 113 1.6 6.4 0.00 0.00 0.00 56 1017.8
20260506163923 19 100 3.2 6.4 0.00 0.00 0.00 55 1017.8
20260506162922 19 87 1.6 4.8 0.00 0.00 0.00 57 1017.9
20260506162421 20 186 1.6 3.2 0.00 0.00 0.00 56 1017.9
20260506161922 20 149 1.6 3.2 0.00 0.00 0.00 58 1017.9
20260506160924 19 128 0.0 3.2 0.00 0.00 0.00 61 1017.9
20260506160423 18 144 1.6 4.8 0.00 0.00 0.00 61 1017.8
20260506155923 17 99 3.2 4.8 0.00 0.00 0.00 62 1017.8
20260506155425 17 178 1.6 4.8 0.00 0.00 0.00 62 1017.8
20260506154923 17 99 1.6 4.8 0.00 0.00 0.00 64 1017.8
20260506154423 17 87 1.6 4.8 0.00 0.00 0.00 65 1017.9
20260506153921 16 144 0.0 3.2 0.00 0.00 0.00 65 1017.8
20260506153422 17 165 1.6 1.6 0.00 0.00 0.00 64 1017.9
20260506152922 16 127 0.0 3.2 0.00 0.00 0.00 69 1018.0
20260506152422 16 140 1.6 3.2 0.00 0.00 0.00 69 1017.9
20260506151422 16 124 0.0 3.2 0.00 0.00 0.00 74 1017.9
20260506150921 15 116 0.0 3.2 0.00 0.00 0.00 74 1018.0
20260506150423 14 166 1.6 3.2 0.00 0.00 0.00 76 1018.1
20260506145923 14 103 0.0 3.2 0.00 0.00 0.00 77 1018.0
20260506145423 13 180 0.0 3.2 0.00 0.00 0.00 79 1018.0
20260506144922 13 180 0.0 3.2 0.00 0.00 0.00 79 1018.0
20260506144422 12 94 0.0 3.2 0.00 0.00 0.00 80 1018.0
20260506143925 12 87 0.0 3.2 0.00 0.00 0.00 82 1017.9
20260506142922 11 55 1.6 3.2 0.00 0.00 0.00 83 1017.9
20260506142422 11 47 1.6 4.8 0.00 0.00 0.00 87 1017.9
20260506141922 11 4 1.6 4.8 0.00 0.00 0.00 90 1017.7
20260506141422 10 39 3.2 4.8 0.00 0.00 0.00 91 1017.8
20260506140922 9 8 1.6 3.2 0.00 0.00 0.00 91 1017.7
20260506140423 8 0 1.6 3.2 0.00 0.00 0.00 91 1017.7
20260506135923 8 0 1.6 3.2 0.00 0.00 0.00 90 1017.7
20260506135422 8 347 1.6 3.2 0.00 0.00 0.00 90 1017.6
20260506134922 8 338 1.6 3.2 0.00 0.00 0.00 90 1017.7
20260506134423 8 334 1.6 1.6 0.00 0.00 0.00 90 1017.6
20260506133922 8 353 0.0 1.6 0.00 0.00 0.00 90 1017.7
20260506133422 8 353 0.0 1.6 0.00 0.00 0.00 90 1017.7
20260506132923 8 353 1.6 1.6 0.00 0.00 0.00 89 1017.7
20260506132422 8 353 0.0 0.0 0.00 0.00 0.00 89 1017.6
20260506131922 8 353 0.0 0.0 0.00 0.00 0.00 89 1017.5
20260506131421 8 353 0.0 1.6 0.00 0.00 0.00 90 1017.5
20260506130922 8 353 0.0 1.6 0.00 0.00 0.00 90 1017.5
20260506130422 8 353 1.6 1.6 0.00 0.00 0.00 90 1017.5
20260506125922 8 353 0.0 1.6 0.00 0.00 0.00 90 1017.4
20260506125422 8 353 1.6 1.6 0.00 0.00 0.00 90 1017.3
20260506124921 8 353 1.6 1.6 0.00 0.00 0.00 90 1017.3
20260506123922 8 353 1.6 3.2 0.00 0.00 0.00 90 1017.2
20260506123423 8 353 0.0 1.6 0.00 0.00 0.00 89 1017.3
20260506122921 8 353 0.0 3.2 0.00 0.00 0.00 89 1017.2
20260506121923 8 345 1.6 3.2 0.00 0.00 0.00 89 1017.0
20260506121421 8 345 1.6 3.2 0.00 0.00 0.00 89 1016.9
20260506120924 8 345 0.0 3.2 0.00 0.00 0.00 89 1016.9
20260506120422 8 345 0.0 3.2 0.00 0.00 0.00 89 1016.9
20260506115422 8 345 1.6 3.2 0.00 0.00 0.00 89 1016.9
20260506114921 8 345 0.0 3.2 0.00 0.00 0.00 89 1016.9
20260506114422 8 345 0.0 1.6 0.00 0.00 0.00 89 1016.9
20260506113922 8 345 0.0 1.6 0.00 0.00 0.00 89 1016.9
20260506113421 8 345 0.0 1.6 0.00 0.00 0.00 89 1016.8
20260506112921 8 345 0.0 1.6 0.00 0.00 0.00 89 1016.9
20260506112421 8 345 1.6 3.2 0.00 0.00 0.00 89 1016.8
20260506111921 8 345 1.6 4.8 0.00 0.00 0.00 89 1016.9
20260506111422 8 327 1.6 4.8 0.00 0.00 0.00 89 1016.8
20260506110424 8 348 1.6 3.2 0.00 0.00 0.00 89 1016.9
20260506105921 9 0 0.0 3.2 0.00 0.00 0.00 89 1016.9
20260506105423 8 323 1.6 3.2 0.00 0.00 0.00 89 1016.9
20260506104922 9 321 0.0 3.2 0.00 0.00 0.00 89 1016.9
20260506104422 9 321 1.6 3.2 0.00 0.00 0.00 89 1016.8
20260506103922 9 334 0.0 3.2 0.00 0.00 0.00 89 1016.8
20260506103421 9 334 1.6 3.2 0.00 0.00 0.00 89 1016.8
20260506102921 9 337 1.6 3.2 0.00 0.00 0.00 89 1016.8
20260506102421 9 319 1.6 4.8 0.00 0.00 0.00 89 1016.8
20260506101923 9 0 1.6 4.8 0.00 0.00 0.00 89 1016.8
20260506101423 9 348 1.6 1.6 0.00 0.00 0.00 89 1016.8
20260506095921 9 337 0.0 3.2 0.00 0.00 0.00 89 1016.8
20260506095422 9 337 0.0 4.8 0.00 0.00 0.00 89 1016.9
20260506094922 9 305 3.2 4.8 0.00 0.00 0.00 89 1016.8
20260506093923 9 0 1.6 3.2 0.00 0.00 0.00 89 1016.9
20260506093421 9 0 1.6 3.2 0.00 0.00 0.00 89 1016.9
20260506092922 9 0 0.0 4.8 0.00 0.00 0.00 89 1016.9
20260506092422 9 0 0.0 6.4 0.00 0.00 0.00 89 1017.1
20260506091922 9 27 3.2 6.4 0.00 0.00 0.00 89 1017.1
20260506091421 9 32 0.0 6.4 0.00 0.00 0.00 89 1017.1
20260506090922 9 27 3.2 6.4 0.00 0.00 0.00 89 1017.2
20260506085922 9 7 0.0 1.6 0.00 0.00 0.00 89 1017.2
20260506085422 10 7 0.0 6.4 0.00 0.00 0.00 89 1017.1
20260506084421 10 32 3.2 4.8 0.00 0.00 0.00 89 1017.1
20260506083421 10 341 1.6 3.2 0.00 0.00 0.00 89 1017.2
20260506082422 10 314 3.2 4.8 0.00 0.00 0.00 89 1017.2
20260506081922 10 344 1.6 3.2 0.00 0.00 0.00 89 1017.3
20260506081421 10 320 1.6 3.2 0.00 0.00 0.00 89 1017.1
20260506080922 10 313 0.0 3.2 0.00 0.00 0.00 89 1017.2
20260506080420 10 313 1.6 3.2 0.00 0.00 0.00 89 1017.1
20260506073421 10 320 0.0 3.2 0.00 0.00 0.00 88 1017.1
20260506072921 10 320 1.6 3.2 0.00 0.00 0.00 88 1017.1
20260506071420 10 307 3.2 4.8 0.00 0.00 0.00 88 1017.0
20260506070421 10 347 1.6 4.8 0.00 0.00 0.00 88 1016.9
20260506062421 11 337 0.0 4.8 0.00 0.00 0.00 87 1016.3
20260506061920 11 337 1.6 4.8 0.00 0.00 0.00 87 1016.3
20260506061423 11 319 0.0 4.8 0.00 0.00 0.00 87 1016.2
20260506060921 11 319 0.0 4.8 0.00 0.00 0.00 87 1016.2
20260506060421 11 13 0.0 3.2 0.00 0.00 0.00 87 1016.3